Time,TemperatureF,DewpointF,PressureIn,WindDirection,WindDirectionDegrees,WindSpeedMPH,WindSpeedGustMPH,Humidity,HourlyPrecipIn,Conditions,Clouds,dailyrainin,SoftwareType,DateUTC
2013-05-25 00:01:00,44.3,41.6,29.84,NW,315,2.5,7.4,90,0.07,,,0.01,WUHU216HW,2013-05-25 04:01:00,
2013-05-25 00:02:00,44.3,41.6,29.84,WSW,248,2.5,7.4,90,0.07,,,0.01,WUHU216HW,2013-05-25 04:02:00,
2013-05-25 00:07:00,44.3,41.6,29.84,North,0,2.5,6.9,90,0.07,,,0.01,WUHU216HW,2013-05-25 04:07:00,
2013-05-25 00:12:00,44.3,41.6,29.85,NW,315,2.5,6.3,90,0.06,,,0.01,WUHU216HW,2013-05-25 04:12:00,
2013-05-25 00:17:00,44.1,41.4,29.84,NNE,23,2.5,4.7,90,0.04,,,0.01,WUHU216HW,2013-05-25 04:17:00,
2013-05-25 00:22:00,44.1,41.4,29.84,NNE,23,3.6,4.7,90,0.04,,,0.01,WUHU216HW,2013-05-25 04:22:00,
2013-05-25 00:27:00,44.1,41.4,29.84,WSW,248,0.4,4.7,90,0.04,,,0.01,WUHU216HW,2013-05-25 04:27:00,
2013-05-25 00:32:00,44.1,41.4,29.84,North,0,3.1,5.4,90,0.03,,,0.01,WUHU216HW,2013-05-25 04:32:00,
2013-05-25 00:37:00,44.1,41.4,29.83,NNW,338,0.7,6.3,90,0.03,,,0.01,WUHU216HW,2013-05-25 04:37:00,
2013-05-25 00:42:00,44.1,41.4,29.83,NNE,23,8.1,8.1,90,0.03,,,0.01,WUHU216HW,2013-05-25 04:42:00,
2013-05-25 00:47:00,44.1,41.4,29.83,NNE,23,5.4,8.1,90,0.03,,,0.01,WUHU216HW,2013-05-25 04:47:00,
2013-05-25 00:52:00,44.1,41.4,29.83,NNW,338,3.1,8.1,90,0.01,,,0.01,WUHU216HW,2013-05-25 04:52:00,
2013-05-25 00:57:00,44.1,41.4,29.83,North,0,0.4,6.0,90,0.02,,,0.02,WUHU216HW,2013-05-25 04:57:00,
2013-05-25 01:02:00,44.1,41.4,29.83,NW,315,2.2,4.7,90,0.01,,,0.02,WUHU216HW,2013-05-25 05:02:00,
2013-05-25 01:07:00,44.1,41.4,29.83,NNE,23,2.2,3.4,90,0.01,,,0.02,WUHU216HW,2013-05-25 05:07:00,
2013-05-25 01:12:00,44.1,41.4,29.83,NNW,338,2.7,3.4,90,0.01,,,0.02,WUHU216HW,2013-05-25 05:12:00,
2013-05-25 01:17:00,44.1,41.4,29.83,NE,45,1.1,4.7,90,0.01,,,0.02,WUHU216HW,2013-05-25 05:17:00,
2013-05-25 01:22:00,44.1,41.4,29.83,West,270,1.1,4.7,90,0.01,,,0.02,WUHU216HW,2013-05-25 05:22:00,
2013-05-25 01:27:00,43.9,41.2,29.83,WSW,248,1.3,4.7,90,0.01,,,0.02,WUHU216HW,2013-05-25 05:27:00,
2013-05-25 01:32:00,43.9,41.2,29.83,WNW,293,1.1,4.0,90,0.01,,,0.02,WUHU216HW,2013-05-25 05:32:00,
2013-05-25 01:37:00,43.9,41.2,29.83,West,270,1.1,5.8,90,0.02,,,0.03,WUHU216HW,2013-05-25 05:37:00,
2013-05-25 01:42:00,43.9,41.2,29.83,WNW,293,2.5,5.8,90,0.02,,,0.03,WUHU216HW,2013-05-25 05:42:00,
2013-05-25 01:47:00,43.9,41.2,29.83,WNW,293,1.8,4.5,90,0.02,,,0.03,WUHU216HW,2013-05-25 05:47:00,
2013-05-25 01:52:00,43.9,41.2,29.83,NNW,338,0.7,3.6,90,0.01,,,0.03,WUHU216HW,2013-05-25 05:52:00,
2013-05-25 01:57:00,43.9,41.2,29.83,North,0,0.7,3.4,90,0.01,,,0.03,WUHU216HW,2013-05-25 05:57:00,
2013-05-25 02:02:00,43.9,41.2,29.83,NNW,338,4.0,4.0,90,0.01,,,0.03,WUHU216HW,2013-05-25 06:02:00,
2013-05-25 02:07:00,43.9,41.2,29.83,WNW,293,2.0,4.0,90,0.01,,,0.03,WUHU216HW,2013-05-25 06:07:00,
2013-05-25 02:12:00,43.9,41.2,29.83,West,270,1.3,4.0,90,0.01,,,0.03,WUHU216HW,2013-05-25 06:12:00,
2013-05-25 02:17:00,43.9,41.2,29.83,WNW,293,2.5,3.4,90,0.01,,,0.03,WUHU216HW,2013-05-25 06:17:00,
2013-05-25 02:22:00,43.9,41.2,29.82,NNW,338,2.9,4.9,90,0.02,,,0.04,WUHU216HW,2013-05-25 06:22:00,
2013-05-25 02:27:00,43.9,41.2,29.82,WNW,293,2.5,4.9,90,0.03,,,0.05,WUHU216HW,2013-05-25 06:27:00,
2013-05-25 02:32:00,43.7,41.0,29.82,NE,45,0.7,3.1,90,0.04,,,0.06,WUHU216HW,2013-05-25 06:32:00,
2013-05-25 02:37:00,43.7,41.0,29.82,NW,315,1.1,3.6,90,0.05,,,0.08,WUHU216HW,2013-05-25 06:37:00,
2013-05-25 02:42:00,43.7,41.0,29.82,NNW,338,3.4,4.0,90,0.06,,,0.09,WUHU216HW,2013-05-25 06:42:00,
2013-05-25 02:47:00,43.7,41.0,29.82,NNE,23,2.0,4.0,90,0.06,,,0.09,WUHU216HW,2013-05-25 06:47:00,
2013-05-25 02:52:00,43.7,41.0,29.82,WSW,248,1.1,4.0,90,0.07,,,0.10,WUHU216HW,2013-05-25 06:52:00,
2013-05-25 02:57:00,43.6,40.9,29.81,North,0,2.5,4.9,90,0.07,,,0.10,WUHU216HW,2013-05-25 06:57:00,
2013-05-25 03:02:00,43.7,41.0,29.81,West,270,1.8,4.9,90,0.08,,,0.11,WUHU216HW,2013-05-25 07:02:00,
2013-05-25 03:07:00,43.6,40.9,29.81,West,270,0.9,4.3,90,0.09,,,0.12,WUHU216HW,2013-05-25 07:07:00,
2013-05-25 03:12:00,43.6,40.9,29.80,North,0,0.7,4.3,90,0.09,,,0.12,WUHU216HW,2013-05-25 07:12:00,
2013-05-25 03:17:00,43.6,40.9,29.80,NW,315,2.7,4.3,90,0.09,,,0.12,WUHU216HW,2013-05-25 07:17:00,
2013-05-25 03:22:00,43.6,40.9,29.80,West,270,1.8,4.3,90,0.08,,,0.12,WUHU216HW,2013-05-25 07:22:00,
2013-05-25 03:27:00,43.6,40.9,29.80,North,0,0.4,3.6,90,0.07,,,0.12,WUHU216HW,2013-05-25 07:27:00,
2013-05-25 03:32:00,43.7,41.0,29.80,NNE,23,1.6,5.1,90,0.06,,,0.12,WUHU216HW,2013-05-25 07:32:00,
2013-05-25 03:37:00,43.9,41.0,29.80,North,0,3.8,5.8,89,0.04,,,0.12,WUHU216HW,2013-05-25 07:37:00,
2013-05-25 03:42:00,43.7,40.8,29.81,North,0,0.9,5.8,89,0.04,,,0.13,WUHU216HW,2013-05-25 07:42:00,
2013-05-25 03:47:00,43.7,40.8,29.81,NE,45,1.8,6.3,89,0.03,,,0.13,WUHU216HW,2013-05-25 07:47:00,
2013-05-25 03:52:00,43.7,40.8,29.81,North,0,1.8,6.5,89,0.03,,,0.13,WUHU216HW,2013-05-25 07:52:00,
2013-05-25 03:57:00,43.7,41.0,29.81,North,0,2.2,6.5,90,0.02,,,0.13,WUHU216HW,2013-05-25 07:57:00,
2013-05-25 04:02:00,43.6,40.9,29.80,NNW,338,1.1,3.8,90,0.02,,,0.13,WUHU216HW,2013-05-25 08:02:00,
2013-05-25 04:07:00,43.6,40.9,29.80,NNE,23,4.7,5.4,90,0.01,,,0.13,WUHU216HW,2013-05-25 08:07:00,
2013-05-25 04:12:00,43.6,40.9,29.79,NNE,23,3.6,5.4,90,0.01,,,0.13,WUHU216HW,2013-05-25 08:12:00,
2013-05-25 04:17:00,43.6,40.9,29.80,WNW,293,1.1,4.7,90,0.01,,,0.13,WUHU216HW,2013-05-25 08:17:00,
2013-05-25 04:22:00,43.6,40.9,29.80,North,0,1.1,4.5,90,0.01,,,0.13,WUHU216HW,2013-05-25 08:22:00,
2013-05-25 04:27:00,43.6,40.9,29.80,NW,315,2.0,4.5,90,0.01,,,0.13,WUHU216HW,2013-05-25 08:27:00,
2013-05-25 04:32:00,43.6,40.9,29.79,NNE,23,2.5,3.4,90,0.02,,,0.14,WUHU216HW,2013-05-25 08:32:00,
2013-05-25 04:37:00,43.6,40.9,29.80,SW,225,0.7,3.4,90,0.02,,,0.15,WUHU216HW,2013-05-25 08:37:00,
2013-05-25 04:42:00,43.6,40.9,29.79,NW,315,1.6,3.1,90,0.03,,,0.17,WUHU216HW,2013-05-25 08:42:00,
2013-05-25 04:47:00,43.4,40.7,29.79,West,270,0.9,2.0,90,0.03,,,0.17,WUHU216HW,2013-05-25 08:47:00,
2013-05-25 04:52:00,43.4,40.7,29.79,NW,315,1.8,2.2,90,0.03,,,0.17,WUHU216HW,2013-05-25 08:52:00,
2013-05-25 04:57:00,43.4,40.7,29.80,SW,225,0.9,2.5,90,0.03,,,0.17,WUHU216HW,2013-05-25 08:57:00,
2013-05-25 05:02:00,43.4,40.7,29.80,NW,315,0.4,2.5,90,0.03,,,0.17,WUHU216HW,2013-05-25 09:02:00,
2013-05-25 05:07:00,43.4,40.7,29.79,NW,315,0.0,2.5,90,0.03,,,0.17,WUHU216HW,2013-05-25 09:07:00,
2013-05-25 05:12:00,43.2,40.5,29.79,SW,225,0.2,2.5,90,0.04,,,0.17,WUHU216HW,2013-05-25 09:12:00,
2013-05-25 05:17:00,43.2,40.5,29.79,NE,45,1.8,3.8,90,0.04,,,0.17,WUHU216HW,2013-05-25 09:17:00,
2013-05-25 05:22:00,43.2,40.5,29.79,NNW,338,1.8,4.0,90,0.04,,,0.17,WUHU216HW,2013-05-25 09:22:00,
2013-05-25 05:27:00,43.2,40.5,29.79,North,0,2.7,4.0,90,0.03,,,0.17,WUHU216HW,2013-05-25 09:27:00,
2013-05-25 05:32:00,43.2,40.5,29.79,NNW,338,1.3,5.4,90,0.03,,,0.19,WUHU216HW,2013-05-25 09:32:00,
2013-05-25 05:37:00,43.2,40.5,29.79,West,270,1.1,5.4,90,0.03,,,0.19,WUHU216HW,2013-05-25 09:37:00,
2013-05-25 05:42:00,43.0,40.3,29.78,North,0,1.3,5.4,90,0.02,,,0.19,WUHU216HW,2013-05-25 09:42:00,
2013-05-25 05:47:00,43.0,40.3,29.78,NNW,338,0.4,5.4,90,0.02,,,0.19,WUHU216HW,2013-05-25 09:47:00,
2013-05-25 05:52:00,43.0,40.3,29.78,North,0,2.5,3.4,90,0.02,,,0.19,WUHU216HW,2013-05-25 09:52:00,
2013-05-25 05:57:00,42.8,40.4,29.78,WNW,293,0.0,3.8,91,0.02,,,0.19,WUHU216HW,2013-05-25 09:57:00,
2013-05-25 06:02:00,42.8,40.1,29.78,WSW,248,0.4,3.8,90,0.03,,,0.19,WUHU216HW,2013-05-25 10:02:00,
2013-05-25 06:07:00,43.0,40.3,29.78,NW,315,1.3,2.7,90,0.02,,,0.19,WUHU216HW,2013-05-25 10:07:00,
2013-05-25 06:12:00,43.2,40.8,29.78,NNW,338,1.8,4.7,91,0.02,,,0.19,WUHU216HW,2013-05-25 10:12:00,
2013-05-25 06:17:00,43.0,40.6,29.79,WNW,293,1.6,4.7,91,0.02,,,0.19,WUHU216HW,2013-05-25 10:17:00,
2013-05-25 06:22:00,43.0,40.3,29.79,WNW,293,3.4,4.5,90,0.02,,,0.19,WUHU216HW,2013-05-25 10:22:00,
2013-05-25 06:27:00,43.2,40.5,29.80,WSW,248,4.0,4.5,90,0.03,,,0.21,WUHU216HW,2013-05-25 10:27:00,
2013-05-25 06:32:00,43.2,40.5,29.80,West,270,0.2,4.5,90,0.02,,,0.21,WUHU216HW,2013-05-25 10:32:00,
2013-05-25 06:37:00,43.2,40.5,29.81,NW,315,1.6,3.4,90,0.02,,,0.21,WUHU216HW,2013-05-25 10:37:00,
2013-05-25 06:42:00,43.2,40.5,29.81,NW,315,2.2,5.1,90,0.02,,,0.21,WUHU216HW,2013-05-25 10:42:00,
2013-05-25 06:47:00,43.2,40.8,29.81,North,0,1.1,5.1,91,0.04,,,0.22,WUHU216HW,2013-05-25 10:47:00,
2013-05-25 06:52:00,43.0,40.6,29.81,WNW,293,2.0,3.4,91,0.06,,,0.24,WUHU216HW,2013-05-25 10:52:00,
2013-05-25 06:57:00,43.0,40.6,29.81,NNW,338,1.8,6.0,91,0.07,,,0.26,WUHU216HW,2013-05-25 10:57:00,
2013-05-25 07:02:00,42.8,40.4,29.80,North,0,3.8,8.7,91,0.08,,,0.28,WUHU216HW,2013-05-25 11:02:00,
2013-05-25 07:07:00,42.8,40.4,29.79,NW,315,6.9,8.7,91,0.10,,,0.30,WUHU216HW,2013-05-25 11:07:00,
2013-05-25 07:12:00,42.8,40.4,29.79,North,0,4.7,7.8,91,0.13,,,0.33,WUHU216HW,2013-05-25 11:12:00,
2013-05-25 07:17:00,42.8,40.4,29.78,West,270,2.7,8.5,91,0.15,,,0.35,WUHU216HW,2013-05-25 11:17:00,
2013-05-25 07:22:00,42.8,40.4,29.78,NNE,23,1.8,8.5,91,0.16,,,0.36,WUHU216HW,2013-05-25 11:22:00,
2013-05-25 07:27:00,42.8,40.4,29.78,North,0,8.9,8.9,91,0.16,,,0.37,WUHU216HW,2013-05-25 11:27:00,
2013-05-25 07:32:00,42.8,40.4,29.79,North,0,4.5,8.9,91,0.17,,,0.38,WUHU216HW,2013-05-25 11:32:00,
2013-05-25 07:37:00,42.8,40.1,29.78,North,0,1.8,8.9,90,0.18,,,0.39,WUHU216HW,2013-05-25 11:37:00,
2013-05-25 07:42:00,42.7,40.0,29.78,NNE,23,2.2,8.3,90,0.18,,,0.40,WUHU216HW,2013-05-25 11:42:00,
2013-05-25 07:47:00,42.7,40.0,29.78,NNW,338,2.7,7.6,90,0.17,,,0.41,WUHU216HW,2013-05-25 11:47:00,
2013-05-25 07:52:00,42.7,40.0,29.78,NNE,23,4.0,7.6,90,0.16,,,0.41,WUHU216HW,2013-05-25 11:52:00,
2013-05-25 07:57:00,42.7,40.0,29.79,North,0,2.5,5.6,90,0.16,,,0.43,WUHU216HW,2013-05-25 11:57:00,
2013-05-25 08:02:00,42.7,40.2,29.79,NNW,338,1.3,4.9,91,0.17,,,0.45,WUHU216HW,2013-05-25 12:02:00,
2013-05-25 08:07:00,42.7,40.2,29.79,ENE,68,2.2,4.9,91,0.16,,,0.46,WUHU216HW,2013-05-25 12:07:00,
2013-05-25 08:12:00,42.7,40.2,29.78,North,0,4.7,6.3,91,0.13,,,0.48,WUHU216HW,2013-05-25 12:12:00,
2013-05-25 08:17:00,42.8,40.4,29.78,NNW,338,2.7,6.7,91,0.15,,,0.51,WUHU216HW,2013-05-25 12:17:00,
2013-05-25 08:22:00,43.2,40.8,29.78,NNW,338,2.5,7.2,91,0.16,,,0.53,WUHU216HW,2013-05-25 12:22:00,
2013-05-25 08:27:00,43.0,40.6,29.79,NNW,338,3.8,7.6,91,0.16,,,0.54,WUHU216HW,2013-05-25 12:27:00,
2013-05-25 08:32:00,43.2,40.8,29.79,NW,315,2.9,7.6,91,0.16,,,0.55,WUHU216HW,2013-05-25 12:32:00,
2013-05-25 08:37:00,42.8,40.1,29.79,North,0,3.4,6.3,90,0.18,,,0.58,WUHU216HW,2013-05-25 12:37:00,
2013-05-25 08:42:00,42.7,40.0,29.80,NW,315,3.4,6.3,90,0.18,,,0.59,WUHU216HW,2013-05-25 12:42:00,
2013-05-25 08:47:00,42.8,40.1,29.80,NNE,23,2.0,4.5,90,0.19,,,0.60,WUHU216HW,2013-05-25 12:47:00,
2013-05-25 08:52:00,42.8,40.1,29.80,NW,315,1.8,4.5,90,0.19,,,0.61,WUHU216HW,2013-05-25 12:52:00,
2013-05-25 08:57:00,42.8,40.1,29.80,NNW,338,1.8,4.0,90,0.18,,,0.61,WUHU216HW,2013-05-25 12:57:00,
2013-05-25 09:02:00,43.0,40.6,29.79,NW,315,3.1,4.0,91,0.17,,,0.62,WUHU216HW,2013-05-25 13:02:00,
2013-05-25 09:07:00,43.0,40.3,29.79,NW,315,3.1,3.8,90,0.17,,,0.63,WUHU216HW,2013-05-25 13:07:00,
2013-05-25 09:12:00,42.8,40.1,29.79,WNW,293,5.8,6.0,90,0.13,,,0.63,WUHU216HW,2013-05-25 13:12:00,
2013-05-25 09:17:00,42.7,40.0,29.79,North,0,2.7,6.3,90,0.13,,,0.65,WUHU216HW,2013-05-25 13:17:00,
2013-05-25 09:22:00,42.7,40.0,29.78,NNW,338,3.6,6.3,90,0.13,,,0.66,WUHU216HW,2013-05-25 13:22:00,
2013-05-25 09:27:00,42.8,40.1,29.78,ENE,68,1.6,5.8,90,0.13,,,0.67,WUHU216HW,2013-05-25 13:27:00,
2013-05-25 09:32:00,43.2,40.5,29.78,NW,315,3.1,5.8,90,0.10,,,0.68,WUHU216HW,2013-05-25 13:32:00,
2013-05-25 09:37:00,43.0,40.1,29.78,NW,315,2.5,7.8,89,0.10,,,0.69,WUHU216HW,2013-05-25 13:37:00,
2013-05-25 09:42:00,43.0,40.1,29.78,WSW,248,3.1,7.8,89,0.09,,,0.69,WUHU216HW,2013-05-25 13:42:00,
2013-05-25 09:47:00,42.8,39.9,29.77,NNE,23,2.0,6.9,89,0.09,,,0.69,WUHU216HW,2013-05-25 13:47:00,
2013-05-25 09:52:00,42.8,39.9,29.77,NW,315,2.5,6.9,89,0.08,,,0.69,WUHU216HW,2013-05-25 13:52:00,
2013-05-25 09:57:00,43.0,40.3,29.77,NW,315,0.9,5.6,90,0.07,,,0.69,WUHU216HW,2013-05-25 13:57:00,
2013-05-25 10:02:00,43.0,40.3,29.77,NNW,338,1.8,6.0,90,0.06,,,0.69,WUHU216HW,2013-05-25 14:02:00,
2013-05-25 10:07:00,43.2,40.5,29.77,West,270,2.9,6.0,90,0.06,,,0.69,WUHU216HW,2013-05-25 14:07:00,
2013-05-25 10:12:00,43.2,40.5,29.77,NW,315,4.3,6.0,90,0.04,,,0.69,WUHU216HW,2013-05-25 14:12:00,
2013-05-25 10:17:00,43.2,40.2,29.77,North,0,6.5,6.5,89,0.03,,,0.69,WUHU216HW,2013-05-25 14:17:00,
2013-05-25 10:22:00,43.2,40.2,29.76,NW,315,1.3,6.5,89,0.03,,,0.70,WUHU216HW,2013-05-25 14:22:00,
2013-05-25 10:27:00,43.4,40.4,29.76,WNW,293,2.7,6.7,89,0.02,,,0.70,WUHU216HW,2013-05-25 14:27:00,
2013-05-25 10:32:00,43.4,40.4,29.77,SSW,203,0.9,8.7,89,0.02,,,0.71,WUHU216HW,2013-05-25 14:32:00,
2013-05-25 10:37:00,43.0,39.7,29.77,WSW,248,1.3,8.7,88,0.02,,,0.71,WUHU216HW,2013-05-25 14:37:00,
2013-05-25 10:42:00,42.7,39.7,29.77,WNW,293,5.4,8.5,89,0.02,,,0.71,WUHU216HW,2013-05-25 14:42:00,
2013-05-25 10:47:00,42.5,39.5,29.77,NW,315,8.9,10.7,89,0.02,,,0.71,WUHU216HW,2013-05-25 14:47:00,
2013-05-25 10:52:00,42.5,39.5,29.77,NW,315,8.1,10.7,89,0.02,,,0.71,WUHU216HW,2013-05-25 14:52:00,
2013-05-25 10:57:00,42.5,39.5,29.77,WNW,293,8.9,8.9,89,0.03,,,0.72,WUHU216HW,2013-05-25 14:57:00,
2013-05-25 11:02:00,42.5,39.5,29.77,WNW,293,5.4,11.0,89,0.04,,,0.73,WUHU216HW,2013-05-25 15:02:00,
2013-05-25 11:07:00,42.5,39.5,29.77,North,0,5.1,11.0,89,0.04,,,0.73,WUHU216HW,2013-05-25 15:07:00,
2013-05-25 11:12:00,42.3,39.3,29.77,West,270,6.7,9.4,89,0.05,,,0.74,WUHU216HW,2013-05-25 15:12:00,
2013-05-25 11:17:00,42.1,39.2,29.78,NW,315,4.7,9.4,89,0.06,,,0.76,WUHU216HW,2013-05-25 15:17:00,
2013-05-25 11:22:00,41.9,39.0,29.77,WNW,293,4.5,8.9,89,0.07,,,0.77,WUHU216HW,2013-05-25 15:22:00,
2013-05-25 11:27:00,41.6,38.6,29.77,NNW,338,2.0,11.4,89,0.09,,,0.78,WUHU216HW,2013-05-25 15:27:00,
2013-05-25 11:32:00,41.4,38.4,29.77,NNW,338,5.4,11.4,89,0.09,,,0.80,WUHU216HW,2013-05-25 15:32:00,
2013-05-25 11:37:00,41.4,38.4,29.77,NNE,23,5.1,7.8,89,0.11,,,0.82,WUHU216HW,2013-05-25 15:37:00,
2013-05-25 11:42:00,41.8,38.8,29.77,North,0,6.9,9.2,89,0.11,,,0.82,WUHU216HW,2013-05-25 15:42:00,
2013-05-25 11:47:00,41.8,38.8,29.77,NNW,338,4.7,9.4,89,0.12,,,0.83,WUHU216HW,2013-05-25 15:47:00,
2013-05-25 11:52:00,41.9,39.0,29.77,NW,315,5.1,9.4,89,0.11,,,0.83,WUHU216HW,2013-05-25 15:52:00,
2013-05-25 11:57:00,41.8,38.8,29.77,West,270,3.6,9.6,89,0.11,,,0.83,WUHU216HW,2013-05-25 15:57:00,
2013-05-25 12:02:00,41.6,38.6,29.78,North,0,7.6,9.6,89,0.10,,,0.83,WUHU216HW,2013-05-25 16:02:00,
2013-05-25 12:07:00,41.4,38.4,29.77,North,0,4.3,7.6,89,0.10,,,0.83,WUHU216HW,2013-05-25 16:07:00,
2013-05-25 12:12:00,41.0,37.7,29.78,NW,315,5.8,7.8,88,0.09,,,0.84,WUHU216HW,2013-05-25 16:12:00,
2013-05-25 12:17:00,41.0,38.1,29.78,WSW,248,2.5,9.8,89,0.07,,,0.84,WUHU216HW,2013-05-25 16:17:00,
2013-05-25 12:22:00,40.9,37.9,29.78,West,270,7.6,9.8,89,0.07,,,0.85,WUHU216HW,2013-05-25 16:22:00,
2013-05-25 12:27:00,40.9,37.9,29.77,NNW,338,6.9,7.6,89,0.07,,,0.85,WUHU216HW,2013-05-25 16:27:00,
2013-05-25 12:32:00,40.9,37.9,29.77,NNW,338,3.8,7.6,89,0.04,,,0.87,WUHU216HW,2013-05-25 16:32:00,
2013-05-25 12:37:00,41.0,38.1,29.78,NW,315,3.4,6.9,89,0.05,,,0.87,WUHU216HW,2013-05-25 16:37:00,
2013-05-25 12:42:00,41.2,38.3,29.78,NNE,23,3.4,10.7,89,0.04,,,0.87,WUHU216HW,2013-05-25 16:42:00,
2013-05-25 12:47:00,41.2,38.3,29.78,WNW,293,1.8,10.7,89,0.04,,,0.87,WUHU216HW,2013-05-25 16:47:00,
2013-05-25 12:52:00,41.4,38.4,29.78,WNW,293,3.6,9.2,89,0.04,,,0.87,WUHU216HW,2013-05-25 16:52:00,
2013-05-25 12:57:00,41.8,39.1,29.78,WNW,293,4.9,10.5,90,0.05,,,0.89,WUHU216HW,2013-05-25 16:57:00,
2013-05-25 13:02:00,41.6,38.6,29.77,WNW,293,7.4,12.1,89,0.06,,,0.89,WUHU216HW,2013-05-25 17:02:00,
2013-05-25 13:07:00,41.4,38.4,29.78,North,0,6.9,12.1,89,0.06,,,0.89,WUHU216HW,2013-05-25 17:07:00,
2013-05-25 13:12:00,41.0,38.1,29.77,NE,45,5.4,11.6,89,0.06,,,0.91,WUHU216HW,2013-05-25 17:12:00,
2013-05-25 13:17:00,40.9,37.9,29.77,NW,315,1.6,11.6,89,0.05,,,0.91,WUHU216HW,2013-05-25 17:17:00,
2013-05-25 13:22:00,40.7,37.7,29.76,North,0,9.2,11.0,89,0.06,,,0.91,WUHU216HW,2013-05-25 17:22:00,
2013-05-25 13:27:00,40.7,37.4,29.77,West,270,5.4,12.5,88,0.05,,,0.91,WUHU216HW,2013-05-25 17:27:00,
2013-05-25 13:32:00,40.3,37.0,29.77,West,270,6.5,12.5,88,0.05,,,0.91,WUHU216HW,2013-05-25 17:32:00,
2013-05-25 13:37:00,40.3,37.0,29.77,NNW,338,4.0,11.4,88,0.04,,,0.91,WUHU216HW,2013-05-25 17:37:00,
2013-05-25 13:42:00,40.1,37.2,29.77,North,0,7.8,11.4,89,0.04,,,0.91,WUHU216HW,2013-05-25 17:42:00,
2013-05-25 13:47:00,40.1,37.2,29.77,North,0,6.5,9.8,89,0.04,,,0.91,WUHU216HW,2013-05-25 17:47:00,
2013-05-25 13:52:00,40.0,36.6,29.77,WNW,293,2.5,11.0,88,0.03,,,0.91,WUHU216HW,2013-05-25 17:52:00,
2013-05-25 13:57:00,40.0,37.0,29.77,NNE,23,3.4,11.0,89,0.02,,,0.91,WUHU216HW,2013-05-25 17:57:00,
2013-05-25 14:02:00,40.0,36.6,29.77,West,270,5.1,12.5,88,0.02,,,0.91,WUHU216HW,2013-05-25 18:02:00,
2013-05-25 14:07:00,40.0,36.6,29.78,WSW,248,10.7,12.5,88,0.02,,,0.91,WUHU216HW,2013-05-25 18:07:00,
2013-05-25 14:12:00,40.0,36.6,29.78,NW,315,7.2,11.9,88,0.01,,,0.91,WUHU216HW,2013-05-25 18:12:00,
2013-05-25 14:17:00,40.0,36.6,29.78,WSW,248,5.8,13.0,88,0.00,,,0.91,WUHU216HW,2013-05-25 18:17:00,
2013-05-25 14:22:00,40.0,36.6,29.77,WNW,293,7.2,13.0,88,0.00,,,0.91,WUHU216HW,2013-05-25 18:22:00,
2013-05-25 14:27:00,39.8,36.8,29.78,NNW,338,2.7,11.2,89,0.00,,,0.91,WUHU216HW,2013-05-25 18:27:00,
2013-05-25 14:32:00,40.0,37.0,29.77,NW,315,7.6,8.9,89,0.00,,,0.91,WUHU216HW,2013-05-25 18:32:00,
2013-05-25 14:37:00,40.0,36.6,29.78,NW,315,4.7,10.5,88,0.00,,,0.91,WUHU216HW,2013-05-25 18:37:00,
2013-05-25 14:42:00,40.0,36.4,29.78,WNW,293,4.5,10.5,87,0.00,,,0.91,WUHU216HW,2013-05-25 18:42:00,
2013-05-25 14:47:00,40.0,36.4,29.78,North,0,5.8,12.1,87,0.00,,,0.91,WUHU216HW,2013-05-25 18:47:00,
2013-05-25 14:52:00,40.1,36.5,29.77,NNE,23,3.4,12.1,87,0.00,,,0.91,WUHU216HW,2013-05-25 18:52:00,
2013-05-25 14:57:00,40.5,36.9,29.77,North,0,6.3,10.5,87,0.00,,,0.91,WUHU216HW,2013-05-25 18:57:00,
2013-05-25 15:02:00,40.5,36.6,29.77,NW,315,9.2,10.5,86,0.00,,,0.91,WUHU216HW,2013-05-25 19:02:00,
2013-05-25 15:07:00,40.7,37.1,29.77,NNE,23,5.4,11.0,87,0.00,,,0.91,WUHU216HW,2013-05-25 19:07:00,
2013-05-25 15:12:00,40.7,37.1,29.77,North,0,7.4,16.3,87,0.00,,,0.91,WUHU216HW,2013-05-25 19:12:00,
2013-05-25 15:17:00,40.9,36.9,29.76,North,0,3.6,17.2,86,0.00,,,0.91,WUHU216HW,2013-05-25 19:17:00,
2013-05-25 15:22:00,40.9,36.9,29.77,NW,315,5.4,17.2,86,0.00,,,0.91,WUHU216HW,2013-05-25 19:22:00,
2013-05-25 15:27:00,41.0,36.8,29.77,WNW,293,6.9,12.1,85,0.00,,,0.91,WUHU216HW,2013-05-25 19:27:00,
2013-05-25 15:32:00,41.0,36.8,29.77,WNW,293,5.6,12.1,85,0.00,,,0.91,WUHU216HW,2013-05-25 19:32:00,
2013-05-25 15:37:00,41.0,36.8,29.76,West,270,5.4,11.6,85,0.00,,,0.91,WUHU216HW,2013-05-25 19:37:00,
2013-05-25 15:42:00,41.4,36.9,29.77,NW,315,11.2,13.4,84,0.00,,,0.91,WUHU216HW,2013-05-25 19:42:00,
2013-05-25 15:47:00,41.4,36.9,29.77,North,0,11.0,13.4,84,0.00,,,0.91,WUHU216HW,2013-05-25 19:47:00,
2013-05-25 15:52:00,41.2,36.7,29.76,NNW,338,4.9,11.0,84,0.00,,,0.91,WUHU216HW,2013-05-25 19:52:00,
2013-05-25 15:57:00,41.4,36.9,29.77,NW,315,9.4,13.4,84,0.00,,,0.91,WUHU216HW,2013-05-25 19:57:00,
2013-05-25 16:02:00,41.4,36.9,29.76,North,0,11.9,13.4,84,0.00,,,0.91,WUHU216HW,2013-05-25 20:02:00,
2013-05-25 16:07:00,41.4,36.9,29.76,SW,225,1.3,12.8,84,0.00,,,0.91,WUHU216HW,2013-05-25 20:07:00,
2013-05-25 16:12:00,41.6,37.1,29.75,West,270,11.0,12.1,84,0.00,,,0.91,WUHU216HW,2013-05-25 20:12:00,
2013-05-25 16:17:00,41.8,37.5,29.75,NNE,23,6.5,12.1,85,0.00,,,0.91,WUHU216HW,2013-05-25 20:17:00,
2013-05-25 16:22:00,41.8,37.5,29.75,WSW,248,4.7,11.9,85,0.00,,,0.91,WUHU216HW,2013-05-25 20:22:00,
2013-05-25 16:27:00,41.8,37.5,29.76,North,0,7.8,12.8,85,0.00,,,0.91,WUHU216HW,2013-05-25 20:27:00,
2013-05-25 16:32:00,41.8,37.3,29.76,NW,315,4.9,12.8,84,0.00,,,0.91,WUHU216HW,2013-05-25 20:32:00,
2013-05-25 16:37:00,41.6,37.1,29.76,NNW,338,7.2,12.8,84,0.00,,,0.91,WUHU216HW,2013-05-25 20:37:00,
2013-05-25 16:42:00,41.6,36.7,29.75,West,270,5.4,16.3,83,0.00,,,0.91,WUHU216HW,2013-05-25 20:42:00,
2013-05-25 16:47:00,41.4,36.9,29.75,WSW,248,6.5,16.3,84,0.00,,,0.91,WUHU216HW,2013-05-25 20:47:00,
2013-05-25 16:52:00,41.4,36.9,29.75,North,0,9.6,9.6,84,0.00,,,0.91,WUHU216HW,2013-05-25 20:52:00,
2013-05-25 16:57:00,41.4,36.9,29.75,West,270,4.3,9.8,84,0.00,,,0.91,WUHU216HW,2013-05-25 20:57:00,
2013-05-25 17:02:00,41.0,36.6,29.75,WSW,248,3.6,13.0,84,0.00,,,0.91,WUHU216HW,2013-05-25 21:02:00,
2013-05-25 17:07:00,40.9,36.4,29.75,West,270,3.4,13.4,84,0.00,,,0.91,WUHU216HW,2013-05-25 21:07:00,
2013-05-25 17:13:00,40.9,36.4,29.76,NNW,338,8.5,13.4,84,0.00,,,0.91,WUHU216HW,2013-05-25 21:13:00,
2013-05-25 17:18:00,40.7,36.2,29.75,NW,315,3.4,9.4,84,0.00,,,0.91,WUHU216HW,2013-05-25 21:18:00,
2013-05-25 17:23:00,40.7,36.2,29.75,NNW,338,9.4,12.1,84,0.00,,,0.91,WUHU216HW,2013-05-25 21:23:00,
2013-05-25 17:28:00,40.7,36.2,29.75,NNE,23,6.3,12.1,84,0.00,,,0.91,WUHU216HW,2013-05-25 21:28:00,
2013-05-25 17:33:00,40.5,36.0,29.74,NW,315,8.5,10.5,84,0.00,,,0.91,WUHU216HW,2013-05-25 21:33:00,
2013-05-25 17:38:00,40.5,36.3,29.74,WSW,248,1.3,9.2,85,0.00,,,0.91,WUHU216HW,2013-05-25 21:38:00,
2013-05-25 17:43:00,40.1,36.3,29.74,WNW,293,8.5,9.2,86,0.00,,,0.91,WUHU216HW,2013-05-25 21:43:00,
2013-05-25 17:48:00,40.0,36.1,29.74,West,270,10.3,11.6,86,0.01,,,0.93,WUHU216HW,2013-05-25 21:48:00,
2013-05-25 17:53:00,39.6,36.0,29.75,North,0,7.2,12.5,87,0.01,,,0.93,WUHU216HW,2013-05-25 21:53:00,
2013-05-25 17:58:00,39.4,35.8,29.75,WNW,293,6.3,12.5,87,0.02,,,0.94,WUHU216HW,2013-05-25 21:58:00,
2013-05-25 18:03:00,39.2,36.0,29.77,NNW,338,6.9,11.4,88,0.02,,,0.94,WUHU216HW,2013-05-25 22:03:00,
2013-05-25 18:08:00,39.2,36.0,29.76,NW,315,11.9,11.9,88,0.02,,,0.94,WUHU216HW,2013-05-25 22:08:00,
2013-05-25 18:13:00,39.1,35.8,29.76,North,0,5.1,12.1,88,0.02,,,0.94,WUHU216HW,2013-05-25 22:13:00,
2013-05-25 18:18:00,39.1,35.8,29.76,North,0,5.4,12.1,88,0.03,,,0.95,WUHU216HW,2013-05-25 22:18:00,
2013-05-25 18:23:00,38.7,35.7,29.76,NW,315,8.3,12.1,89,0.04,,,0.96,WUHU216HW,2013-05-25 22:23:00,
2013-05-25 18:28:00,38.5,35.6,29.76,West,270,5.4,11.0,89,0.05,,,0.96,WUHU216HW,2013-05-25 22:28:00,
2013-05-25 18:33:00,38.5,35.6,29.76,WNW,293,3.4,10.3,89,0.05,,,0.96,WUHU216HW,2013-05-25 22:33:00,
2013-05-25 18:38:00,38.3,35.4,29.76,WNW,293,10.1,13.0,89,0.06,,,0.98,WUHU216HW,2013-05-25 22:38:00,
2013-05-25 18:43:00,38.2,35.5,29.76,NW,315,11.2,13.0,90,0.05,,,0.98,WUHU216HW,2013-05-25 22:43:00,
2013-05-25 18:48:00,38.0,35.3,29.76,NNW,338,4.5,11.2,90,0.06,,,0.99,WUHU216HW,2013-05-25 22:48:00,
2013-05-25 18:53:00,37.8,35.1,29.76,NW,315,4.9,9.4,90,0.06,,,1.00,WUHU216HW,2013-05-25 22:53:00,
2013-05-25 18:58:00,37.4,34.7,29.76,WNW,293,4.0,10.5,90,0.06,,,1.00,WUHU216HW,2013-05-25 22:58:00,
2013-05-25 19:03:00,37.3,34.3,29.76,NNE,23,2.0,10.5,89,0.07,,,1.01,WUHU216HW,2013-05-25 23:03:00,
2013-05-25 19:08:00,36.9,33.9,29.76,NNW,338,6.9,10.5,89,0.08,,,1.02,WUHU216HW,2013-05-25 23:08:00,
2013-05-25 19:13:00,36.4,33.4,29.75,WNW,293,4.0,10.5,89,0.09,,,1.04,WUHU216HW,2013-05-25 23:13:00,
2013-05-25 19:18:00,36.0,33.0,29.76,NNW,338,3.4,9.6,89,0.09,,,1.05,WUHU216HW,2013-05-25 23:18:00,
2013-05-25 19:23:00,35.6,32.9,29.75,NNW,338,4.0,15.4,90,0.10,,,1.06,WUHU216HW,2013-05-25 23:23:00,
2013-05-25 19:28:00,35.3,32.6,29.75,NW,315,8.5,15.4,90,0.11,,,1.08,WUHU216HW,2013-05-25 23:28:00,
2013-05-25 19:33:00,34.9,32.2,29.75,WSW,248,4.7,9.6,90,0.11,,,1.09,WUHU216HW,2013-05-25 23:33:00,
2013-05-25 19:38:00,34.2,31.5,29.75,NNW,338,6.0,9.6,90,0.11,,,1.09,WUHU216HW,2013-05-25 23:38:00,
2013-05-25 19:43:00,34.0,31.3,29.75,NNE,23,2.2,6.5,90,0.12,,,1.10,WUHU216HW,2013-05-25 23:43:00,
2013-05-25 19:48:00,33.8,31.4,29.75,NNW,338,2.7,6.5,91,0.11,,,1.10,WUHU216HW,2013-05-25 23:48:00,
2013-05-25 19:53:00,33.8,31.4,29.75,East,90,0.4,3.6,91,0.11,,,1.11,WUHU216HW,2013-05-25 23:53:00,
2013-05-25 19:58:00,34.0,31.9,29.74,NW,315,1.8,5.6,92,0.11,,,1.12,WUHU216HW,2013-05-25 23:58:00,
2013-05-25 20:03:00,34.2,32.0,29.74,North,0,2.0,5.8,92,0.12,,,1.13,WUHU216HW,2013-05-26 00:03:00,
2013-05-25 20:08:00,34.4,32.2,29.74,NNW,338,3.8,7.6,92,0.10,,,1.14,WUHU216HW,2013-05-26 00:08:00,
2013-05-25 20:13:00,34.6,32.4,29.73,NNW,338,3.4,7.6,92,0.10,,,1.14,WUHU216HW,2013-05-26 00:13:00,
2013-05-25 20:18:00,34.7,32.6,29.73,NE,45,2.2,7.4,92,0.08,,,1.14,WUHU216HW,2013-05-26 00:18:00,
2013-05-25 20:23:00,34.9,32.8,29.73,NNW,338,1.8,7.6,92,0.08,,,1.15,WUHU216HW,2013-05-26 00:23:00,
2013-05-25 20:28:00,34.9,32.8,29.73,WNW,293,1.8,10.3,92,0.07,,,1.16,WUHU216HW,2013-05-26 00:28:00,
2013-05-25 20:33:00,35.3,33.1,29.73,WNW,293,3.4,10.3,92,0.07,,,1.16,WUHU216HW,2013-05-26 00:33:00,
2013-05-25 20:38:00,35.3,33.1,29.73,North,0,2.2,9.2,92,0.07,,,1.17,WUHU216HW,2013-05-26 00:38:00,
2013-05-25 20:43:00,35.3,33.1,29.73,North,0,5.1,9.2,92,0.07,,,1.17,WUHU216HW,2013-05-26 00:43:00,
2013-05-25 20:48:00,35.3,33.1,29.73,NNW,338,2.9,10.3,92,0.07,,,1.18,WUHU216HW,2013-05-26 00:48:00,
2013-05-25 20:53:00,35.3,33.1,29.73,NE,45,0.9,10.3,92,0.06,,,1.18,WUHU216HW,2013-05-26 00:53:00,
2013-05-25 20:58:00,35.3,33.1,29.73,WSW,248,2.0,4.7,92,0.07,,,1.19,WUHU216HW,2013-05-26 00:58:00,
2013-05-25 21:03:00,35.3,33.1,29.73,North,0,3.4,6.3,92,0.06,,,1.19,WUHU216HW,2013-05-26 01:03:00,
2013-05-25 21:08:00,35.1,32.9,29.73,NNW,338,2.5,6.3,92,0.06,,,1.20,WUHU216HW,2013-05-26 01:08:00,
2013-05-25 21:13:00,34.9,32.8,29.73,North,0,5.4,5.4,92,0.06,,,1.20,WUHU216HW,2013-05-26 01:13:00,
2013-05-25 21:18:00,35.1,32.9,29.73,NW,315,4.5,5.6,92,0.06,,,1.21,WUHU216HW,2013-05-26 01:18:00,
2013-05-25 21:23:00,35.3,33.1,29.73,WSW,248,3.1,6.0,92,0.06,,,1.21,WUHU216HW,2013-05-26 01:23:00,
2013-05-25 21:28:00,35.3,33.1,29.72,West,270,4.5,7.2,92,0.05,,,1.21,WUHU216HW,2013-05-26 01:28:00,
2013-05-25 21:33:00,35.5,33.3,29.72,NNW,338,3.8,8.5,92,0.06,,,1.22,WUHU216HW,2013-05-26 01:33:00,
2013-05-25 21:38:00,35.5,33.3,29.72,NNW,338,2.9,8.5,92,0.05,,,1.22,WUHU216HW,2013-05-26 01:38:00,
2013-05-25 21:43:00,35.5,33.3,29.72,WSW,248,3.4,5.6,92,0.05,,,1.22,WUHU216HW,2013-05-26 01:43:00,
2013-05-25 21:48:00,35.6,33.5,29.72,WNW,293,6.0,6.9,92,0.04,,,1.22,WUHU216HW,2013-05-26 01:48:00,
2013-05-25 21:53:00,35.6,33.5,29.72,NW,315,2.5,6.9,92,0.04,,,1.22,WUHU216HW,2013-05-26 01:53:00,
2013-05-25 21:58:00,35.6,33.5,29.72,WNW,293,3.4,6.9,92,0.04,,,1.23,WUHU216HW,2013-05-26 01:58:00,
2013-05-25 22:03:00,35.6,33.2,29.72,WSW,248,3.6,9.6,91,0.03,,,1.23,WUHU216HW,2013-05-26 02:03:00,
2013-05-25 22:08:00,35.8,33.4,29.72,NE,45,4.0,9.6,91,0.03,,,1.23,WUHU216HW,2013-05-26 02:08:00,
2013-05-25 22:13:00,35.8,33.4,29.72,NNW,338,1.1,6.7,91,0.03,,,1.23,WUHU216HW,2013-05-26 02:13:00,
2013-05-25 22:18:00,35.8,33.4,29.72,WNW,293,2.9,6.7,91,0.02,,,1.23,WUHU216HW,2013-05-26 02:18:00,
2013-05-25 22:23:00,35.8,33.4,29.72,NW,315,1.1,5.4,91,0.03,,,1.24,WUHU216HW,2013-05-26 02:23:00,
2013-05-25 22:28:00,35.8,33.4,29.72,WNW,293,1.3,5.4,91,0.02,,,1.24,WUHU216HW,2013-05-26 02:28:00,
2013-05-25 22:33:00,35.8,33.4,29.72,WNW,293,4.7,6.0,91,0.02,,,1.24,WUHU216HW,2013-05-26 02:33:00,
2013-05-25 22:38:00,35.8,33.4,29.72,West,270,0.7,6.7,91,0.02,,,1.24,WUHU216HW,2013-05-26 02:38:00,
2013-05-25 22:43:00,36.0,33.6,29.72,North,0,2.5,9.4,91,0.02,,,1.24,WUHU216HW,2013-05-26 02:43:00,
2013-05-25 22:48:00,36.0,33.6,29.72,NW,315,2.7,9.4,91,0.02,,,1.24,WUHU216HW,2013-05-26 02:48:00,
2013-05-25 22:53:00,36.0,33.6,29.71,East,90,0.9,4.7,91,0.02,,,1.24,WUHU216HW,2013-05-26 02:53:00,
2013-05-25 22:58:00,36.0,33.6,29.72,NW,315,7.6,7.6,91,0.01,,,1.24,WUHU216HW,2013-05-26 02:58:00,
2013-05-25 23:03:00,36.0,33.6,29.72,NNE,23,2.9,7.6,91,0.01,,,1.24,WUHU216HW,2013-05-26 03:03:00,
2013-05-25 23:08:00,36.0,33.6,29.72,North,0,2.2,6.7,91,0.01,,,1.24,WUHU216HW,2013-05-26 03:08:00,
2013-05-25 23:13:00,35.8,33.4,29.71,NNE,23,2.5,8.5,91,0.01,,,1.24,WUHU216HW,2013-05-26 03:13:00,
2013-05-25 23:18:00,36.0,33.6,29.71,WNW,293,2.5,8.5,91,0.01,,,1.24,WUHU216HW,2013-05-26 03:18:00,
2013-05-25 23:23:00,36.0,33.6,29.71,North,0,5.6,5.6,91,0.00,,,1.24,WUHU216HW,2013-05-26 03:23:00,
2013-05-25 23:28:00,36.0,33.6,29.71,NNE,23,2.7,5.6,91,0.01,,,1.25,WUHU216HW,2013-05-26 03:28:00,
2013-05-25 23:33:00,36.0,33.6,29.71,West,270,4.7,8.1,91,0.01,,,1.25,WUHU216HW,2013-05-26 03:33:00,
2013-05-25 23:38:00,36.0,33.6,29.71,WNW,293,2.5,8.1,91,0.01,,,1.25,WUHU216HW,2013-05-26 03:38:00,
2013-05-25 23:43:00,36.0,33.6,29.71,NNW,338,1.6,7.2,91,0.01,,,1.25,WUHU216HW,2013-05-26 03:43:00,
2013-05-25 23:48:00,36.2,33.8,29.71,North,0,6.3,9.2,91,0.01,,,1.25,WUHU216HW,2013-05-26 03:48:00,
2013-05-25 23:53:00,36.2,33.8,29.71,WNW,293,1.1,9.2,91,0.01,,,1.25,WUHU216HW,2013-05-26 03:53:00,
2013-05-25 23:58:00,36.0,33.6,29.70,NW,315,4.3,5.1,91,0.01,,,1.25,WUHU216HW,2013-05-26 03:58:00,